Weather in Borovoy

Russia / Republic of Karelia     64°36′45″N   32°14′10″E
temp.,
°C
wind,
m/s
gust,
m/s
humid.,
%
clouds,
%
prec.,
mm/h
press.,
hPa
HPBL,
m
12 august, fri
fri1200:00+14wsw4127370 0.0 1012513
03:00+12w5137081 0.0 1013468
06:00+12wsw4117572 0.0 1013431
09:00+15w6126384 0.0 10141181
12:00+17wnw7114619 0.0 10151824
15:00+18nw7104223 0.0 10161974
18:00+18wnw494311 0.0 10172081
21:00+13w38610 0.0 1019185
13 august, sat
sat1300:00+10w310764 0.0 1020221
03:00+9w27830 0.0 1021151
06:00+9w2683100 0.0 1022161
09:00+14w3759100 0.0 1022556
12:00+18wnw464172 0.0 10221537
15:00+20wnw353871 0.0 10212034
18:00+19w354294 0.0 10211883
21:00+14sw226489 0.0 102135
14 august, sun
sun1400:00+14wsw2764100 0.0 1021206
03:00+14ssw2370100 0.0 102183
06:00+13s2576100 0.1 1020126
09:00+16s41058100 0.1 1020463
12:00+19sw594586 0.0 1018955
15:00+23w574524 0.0 10181932
18:00+23w474318 0.0 10171902
21:00+18w246085 0.0 101876
15 august, mon
mon1500:00+14wsw116999 0.0 101910
03:00+13sw117477 0.0 102010
06:00+14s117469 0.0 102011
09:00+20s2360100 0.0 1020395
12:00+24ssw344796 0.0 1020959
15:00+26sw464119 0.0 10191913
18:00+26sw3543100 0.0 10191069
21:00+20ssw236586 0.0 102046
16 august, tue
tue1600:00+17ssw226912 0.0 102031
03:00+16ssw237442 0.0 102152
06:00+15ssw2573100 0.0 102199
09:00+21ssw3453100 0.0 1021308
12:00+26ssw35395 0.0 10201188
15:00+28ssw45335 0.0 10191828
18:00+27sw353742 0.0 1019997
21:00+20s22605 0.0 101924